When you browse on this site, cookies collect data to enhance your experience and personalize the content and advertising you see.
Visit our Privacy Policy to learn more. By continuing to use the site, you agree to this use of cookies and data.
  • En España
  • Lista de países
  • Para 7 días
  • Temperatura del agua
  • El tiempo en el mapa
  • Informadores
  • user-avatar
    Iniciar sesión

    Tiempo cada hora Constantine

    Hoy, 16 Diciembre, Lunes

    Tiempo Temperatura Precipitaciones Viento Presión Humedad
    00:00 +12°C° 0 mm 2 mps 710 mmHg 58%
    01:00 +12°C° 0 mm 2 mps 710 mmHg 59%
    02:00 +12°C° 0 mm 2 mps 710 mmHg 59%
    03:00 +12°C° 0 mm 2 mps 709 mmHg 60%
    04:00 +10°C° 0 mm 2 mps 709 mmHg 61%
    05:00 +10°C° 0 mm 2 mps 709 mmHg 61%
    06:00 +10°C° 0 mm 2 mps 709 mmHg 62%
    07:00 +11°C° 0 mm 3 mps 709 mmHg 60%
    08:00 +13°C° 0 mm 3 mps 710 mmHg 58%
    09:00 +14°C° 0 mm 3 mps 710 mmHg 56%
    10:00 +16°C° 0 mm 3 mps 710 mmHg 52%
    11:00 +18°C° 0 mm 4 mps 709 mmHg 48%
    12:00 +19°C° 0 mm 4 mps 709 mmHg 44%
    13:00 +19°C° 0 mm 4 mps 709 mmHg 44%
    14:00 +19°C° 0 mm 4 mps 708 mmHg 45%
    15:00 +19°C° 0 mm 3 mps 708 mmHg 45%
    16:00 +17°C° 0 mm 3 mps 707 mmHg 48%
    17:00 +16°C° 0 mm 3 mps 707 mmHg 50%
    18:00 +13°C° 0 mm 3 mps 707 mmHg 53%
    19:00 +13°C° 0 mm 3 mps 706 mmHg 55%
    20:00 +12°C° 0 mm 3 mps 706 mmHg 57%
    21:00 +12°C° 0 mm 3 mps 706 mmHg 58%
    22:00 +12°C° 0 mm 4 mps 706 mmHg 59%
    23:00 +12°C° 0 mm 4 mps 706 mmHg 59%

    Mañana, 17 Diciembre, Martes

    Tiempo Temperatura Precipitaciones Viento Presión Humedad
    00:00 +12°C° 0 mm 5 mps 705 mmHg 59%
    01:00 +12°C° 0 mm 4 mps 705 mmHg 59%
    02:00 +12°C° 0 mm 4 mps 705 mmHg 59%
    03:00 +12°C° 0 mm 3 mps 704 mmHg 59%
    04:00 +12°C° 0 mm 3 mps 704 mmHg 59%
    05:00 +12°C° 0 mm 3 mps 704 mmHg 59%
    06:00 +13°C° 0 mm 2 mps 704 mmHg 59%
    07:00 +13°C° 0 mm 2 mps 704 mmHg 58%
    08:00 +14°C° 0 mm 2 mps 704 mmHg 56%
    09:00 +15°C° 0 mm 2 mps 704 mmHg 55%
    10:00 +16°C° 0 mm 5 mps 704 mmHg 48%
    11:00 +17°C° 0 mm 7 mps 704 mmHg 42%
    12:00 +19°C° 0 mm 9 mps 703 mmHg 35%
    13:00 +20°C° 0 mm 8 mps 703 mmHg 35%
    14:00 +18°C° 0 mm 7 mps 702 mmHg 36%
    15:00 +19°C° 0 mm 6 mps 702 mmHg 36%
    16:00 +17°C° 0 mm 6 mps 701 mmHg 39%
    17:00 +15°C° 0 mm 6 mps 701 mmHg 42%
    18:00 +14°C° 0 mm 6 mps 701 mmHg 46%
    19:00 +14°C° 0 mm 5 mps 701 mmHg 49%
    20:00 +13°C° 0 mm 5 mps 702 mmHg 53%
    21:00 +13°C° 0 mm 4 mps 702 mmHg 56%
    22:00 +12°C° 0 mm 4 mps 702 mmHg 57%
    23:00 +12°C° 0 mm 4 mps 701 mmHg 59%

    Pasado mañana, 18 Diciembre, Miércoles

    Tiempo Temperatura Precipitaciones Viento Presión Humedad
    00:00 +11°C° 0 mm 4 mps 701 mmHg 60%
    01:00 +10°C° 0 mm 4 mps 701 mmHg 65%
    02:00 +9°C° 0 mm 3 mps 701 mmHg 70%
    03:00 +8°C° 0 mm 3 mps 701 mmHg 75%
    04:00 +8°C° 0 mm 3 mps 701 mmHg 77%
    05:00 +7°C° 0 mm 3 mps 701 mmHg 78%
    06:00 +7°C° 0 mm 3 mps 702 mmHg 80%
    07:00 +8°C° 0 mm 3 mps 702 mmHg 76%
    08:00 +8°C° 0 mm 4 mps 703 mmHg 72%
    09:00 +10°C° 0 mm 4 mps 703 mmHg 67%
    10:00 +10°C° 0 mm 5 mps 704 mmHg 64%
    11:00 +11°C° 0 mm 7 mps 704 mmHg 60%
    12:00 +12°C° 0 mm 8 mps 704 mmHg 57%
    13:00 +11°C° 0.1 mm 7 mps 705 mmHg 60%
    14:00 +11°C° 0.1 mm 6 mps 705 mmHg 64%
    15:00 +10°C° 0.1 mm 6 mps 705 mmHg 68%
    16:00 +10°C° 0.4 mm 6 mps 705 mmHg 71%
    17:00 +9°C° 0.4 mm 6 mps 706 mmHg 74%
    18:00 +9°C° 0.4 mm 5 mps 706 mmHg 77%
    19:00 +9°C° 0.6 mm 5 mps 707 mmHg 78%
    20:00 +9°C° 0.6 mm 5 mps 708 mmHg 79%
    21:00 +8°C° 0.6 mm 4 mps 708 mmHg 80%
    22:00 +8°C° 0 mm 4 mps 709 mmHg 80%
    23:00 +8°C° 0 mm 3 mps 709 mmHg 79%

    19 Diciembre, Jueves

    Tiempo Temperatura Precipitaciones Viento Presión Humedad
    00:00 +8°C° 0 mm 3 mps 709 mmHg 79%
    01:00 +7°C° 0 mm 2 mps 709 mmHg 79%
    02:00 +7°C° 0 mm 2 mps 709 mmHg 79%
    03:00 +7°C° 0 mm 2 mps 709 mmHg 80%
    04:00 +7°C° 0 mm 2 mps 709 mmHg 79%
    05:00 +6°C° 0 mm 2 mps 710 mmHg 78%
    06:00 +6°C° 0 mm 2 mps 710 mmHg 77%
    07:00 +8°C° 0 mm 2 mps 710 mmHg 71%
    08:00 +9°C° 0 mm 2 mps 711 mmHg 66%
    09:00 +12°C° 0 mm 2 mps 711 mmHg 60%
    10:00 +13°C° 0 mm 2 mps 711 mmHg 54%
    11:00 +14°C° 0 mm 3 mps 711 mmHg 47%
    12:00 +16°C° 0 mm 3 mps 711 mmHg 41%
    13:00 +16°C° 0 mm 3 mps 710 mmHg 43%
    14:00 +16°C° 0 mm 3 mps 710 mmHg 45%
    15:00 +16°C° 0 mm 3 mps 710 mmHg 47%
    16:00 +14°C° 0 mm 3 mps 710 mmHg 50%
    17:00 +12°C° 0 mm 3 mps 710 mmHg 53%
    18:00 +12°C° 0 mm 2 mps 710 mmHg 56%
    19:00 +11°C° 0 mm 3 mps 710 mmHg 56%
    20:00 +10°C° 0 mm 3 mps 710 mmHg 56%
    21:00 +10°C° 0 mm 3 mps 710 mmHg 57%
    22:00 +10°C° 0 mm 3 mps 710 mmHg 57%
    23:00 +10°C° 0 mm 3 mps 710 mmHg 57%

    20 Diciembre, Viernes

    Tiempo Temperatura Precipitaciones Viento Presión Humedad
    00:00 +10°C° 0 mm 3 mps 710 mmHg 58%
    01:00 +10°C° 0 mm 3 mps 709 mmHg 58%
    02:00 +10°C° 0 mm 3 mps 709 mmHg 59%
    03:00 +10°C° 0 mm 3 mps 709 mmHg 59%
    04:00 +9°C° 0 mm 3 mps 708 mmHg 60%
    05:00 +9°C° 0 mm 3 mps 708 mmHg 60%
    06:00 +9°C° 0 mm 3 mps 708 mmHg 61%
    07:00 +10°C° 0 mm 3 mps 708 mmHg 59%
    08:00 +12°C° 0 mm 3 mps 708 mmHg 56%
    09:00 +13°C° 0 mm 4 mps 708 mmHg 54%
    10:00 +15°C° 0 mm 5 mps 707 mmHg 48%
    11:00 +17°C° 0 mm 7 mps 707 mmHg 42%
    12:00 +18°C° 0 mm 9 mps 707 mmHg 36%
    13:00 +18°C° 0 mm 8 mps 706 mmHg 39%
    14:00 +17°C° 0 mm 7 mps 706 mmHg 41%
    15:00 +16°C° 0 mm 6 mps 706 mmHg 43%
    16:00 +15°C° 0 mm 5 mps 705 mmHg 45%
    17:00 +14°C° 0 mm 5 mps 705 mmHg 47%
    18:00 +13°C° 0 mm 4 mps 705 mmHg 48%
    19:00 +13°C° 0 mm 4 mps 705 mmHg 48%
    20:00 +13°C° 0 mm 4 mps 705 mmHg 48%
    21:00 +13°C° 0 mm 4 mps 705 mmHg 48%
    22:00 +13°C° 0 mm 4 mps 705 mmHg 48%
    23:00 +13°C° 0 mm 4 mps 705 mmHg 49%

    21 Diciembre, Sábado

    Tiempo Temperatura Precipitaciones Viento Presión Humedad
    00:00 +13°C° 0 mm 4 mps 704 mmHg 49%
    01:00 +13°C° 0 mm 4 mps 704 mmHg 52%
    02:00 +13°C° 0 mm 4 mps 704 mmHg 55%
    03:00 +12°C° 0 mm 4 mps 703 mmHg 58%
    04:00 +12°C° 0.7 mm 4 mps 703 mmHg 67%
    05:00 +11°C° 0.7 mm 3 mps 704 mmHg 76%
    06:00 +11°C° 0.7 mm 3 mps 704 mmHg 84%
    07:00 +12°C° 0.3 mm 3 mps 704 mmHg 83%
    08:00 +12°C° 0.3 mm 4 mps 705 mmHg 82%
    09:00 +13°C° 0.3 mm 4 mps 706 mmHg 80%
    10:00 +13°C° 0.1 mm 6 mps 706 mmHg 74%
    11:00 +14°C° 0.1 mm 7 mps 707 mmHg 67%
    12:00 +13°C° 0.1 mm 9 mps 707 mmHg 61%
    13:00 +13°C° 0 mm 8 mps 707 mmHg 62%
    14:00 +12°C° 0 mm 7 mps 707 mmHg 63%
    15:00 +12°C° 0 mm 7 mps 707 mmHg 64%
    16:00 +12°C° 0 mm 5 mps 707 mmHg 68%
    17:00 +11°C° 0 mm 3 mps 708 mmHg 72%
    18:00 +10°C° 0 mm 1 mps 708 mmHg 76%
    19:00 +9°C° 0 mm 2 mps 708 mmHg 76%
    20:00 +10°C° 0 mm 2 mps 708 mmHg 76%
    21:00 +10°C° 0 mm 2 mps 709 mmHg 77%
    22:00 +10°C° 0 mm 2 mps 709 mmHg 77%
    23:00 +10°C° 0 mm 2 mps 709 mmHg 78%
    Mostrar más